Location: Godzisko
(49.9648°N, 19.4576°E)
Time: 06:07:56
(UTC+00:00)

Okean 1 - Pass Details

Date: 20 April 2021
Orbit: 537 x 555 km, 82.5° (Epoch: 06 May)

Event Time Altitude Azimuth Distance (km) Brightness Sun altitude
Exits shadow 00:31:34 75° 360° (N) 581 3.4 -23.9°
Drops below altitude 10° 00:35:18 10° 10° (N) 1,845 6.9 -23.6°
Sets 00:37:29 0° 10° (N) 2,742 8.0 -23.4°
